Printer-friendly version

IAU Minor Planet Center

Minor Planet Center

MPEC 2004-B36 : 2004 BG41

The following Minor Planet Electronic Circular may be linked-to from your own Web pages, but must not otherwise be redistributed electronically.


Read MPEC 2004-B35 Read MPEC 2004-B37


M.P.E.C. 2004-B36                                Issued 2004 Jan. 23, 22:11 UT

     The Minor Planet Electronic Circulars contain information on unusual
         minor planets and routine data on comets.  They are published
   on behalf of Commission 20 of the International Astronomical Union by the
          Minor Planet Center, Smithsonian Astrophysical Observatory,
                          Cambridge, MA 02138, U.S.A.

         Supported in part by the Steven and Michele Kirsch Foundation
             Prepared using the Tamkin Foundation Computer Network

                              MPC@CFA.HARVARD.EDU
          URL http://cfa-www.harvard.edu/iau/mpc.html  ISSN 1523-6714

                                   2004 BG41

Observations:
     K04B41G* C2004 01 22.16523 04 27 38.90 +24 54 39.1          19.7   EB036704
     K04B41G  C2004 01 22.19124 04 28 24.13 +24 54 17.5          20.3   EB036704
     K04B41G  C2004 01 22.20397 04 28 46.35 +24 54 05.3          20.4   EB036704
     K04B41G  C2004 01 22.21679 04 29 08.69 +24 53 53.7          20.5   EB036704
     K04B41G 5C2004 01 23.16042 04 57 45.85 +24 31 23.9          19.0 R EB036673
     K04B41G 5C2004 01 23.16782 04 57 58.79 +24 31 07.9                 EB036673
     K04B41G 5C2004 01 23.17396 04 58 09.50 +24 30 55.4                 EB036673
     K04B41G 5C2004 01 23.18090 04 58 21.59 +24 30 41.8                 EB036673
     K04B41G 5C2004 01 23.18831 04 58 34.45 +24 30 26.4                 EB036673
     K04B41G 5C2004 01 23.19734 04 58 50.17 +24 30 07.4                 EB036673
     K04B41G  C2004 01 23.20336 04 58 56.50 +24 29 34.8          19.6 R EB036649
     K04B41G  C2004 01 23.20502 04 58 59.41 +24 29 30.1          19.9 R EB036649
     K04B41G  C2004 01 23.20667 04 59 02.35 +24 29 28.7          21.0 R EB036649
     K04B41G  C2004 01 23.20835 04 59 05.20 +24 29 23.6          19.7 R EB036649
     K04B41G  C2004 01 23.21001 04 59 08.12 +24 29 19.3          19.6 R EB036649
     K04B41G  C2004 01 23.21167 04 59 11.01 +24 29 16.3          19.5 R EB036649
     K04B41G  C2004 01 23.21332 04 59 13.95 +24 29 12.0          19.4 R EB036649
     K04B41G  C2004 01 23.73630 05 15 02.18 +24 07 06.9                 EB036246
     K04B41G  C2004 01 23.73770 05 15 04.75 +24 07 02.6          18.8 R EB036246
     K04B41G  C2004 01 23.73812 05 15 05.25 +24 07 01.9                 EB036246
     K04B41G  C2004 01 23.73897 05 15 06.87 +24 06 59.3                 EB036246

Observer details:
246 Klet Observatory-KLENOT.  Observers J. Ticha, M. Tichy.  1.06-m KLENOT
    Telescope + CCD.
649 Powell Observatory, Louisburg.  Observer R. Fredrick.  0.75-m Newtonian
    + CCD.
673 Table Mountain Observatory, Wrightwood.  Observer J. Young.  0.6-m
    reflector + CCD.
704 Lincoln Laboratory ETS, New Mexico.  Observers M. Blythe, F. Shelly,
    M. Bezpalko, R. Huber, L. Manguso, D. Torres, R. Kracke, M. McCleary,
    H. Stange, A. Milner.  Measurers J. Stuart, R. Sayer, J. Evans, J. Kommers.
    1.0-m f/2.15 reflector + CCD.

Orbital elements:
2004 BG41
Epoch 2004 Jan. 16.0 TT = JDT 2453020.5                 MPC
M   3.17565              (2000.0)            P               Q
n   0.23926872     Peri.  152.51927     -0.08225868     -0.99568162
a   2.5696784      Node   302.17011     +0.90478841     -0.05650778
e   0.6190400      Incl.    2.91389     +0.41784142     -0.07365444
P   4.12           H   24.8           G   0.15
From 21 observations 2004 Jan. 22-23.

Ephemeris:
2004 BG41                a,e,i = 2.57, 0.62, 3                   q = 0.9789
Date    TT    R. A. (2000) Decl.     Delta      r     Elong.  Phase     V
2004 01 16    01 57.34   +21 14.8    0.061    0.996    99.5    77.0    21.4
2004 01 17    02 15.58   +22 11.4    0.058    0.998   102.8    74.0    21.2
2004 01 18    02 36.26   +23 05.6    0.055    1.001   106.6    70.4    21.0
2004 01 19    02 59.49   +23 53.9    0.052    1.004   111.0    66.3    20.7
2004 01 20    03 25.24   +24 31.7    0.050    1.007   115.8    61.6    20.5
2004 01 21    03 53.17   +24 54.1    0.049    1.010   121.1    56.5    20.3
2004 01 22    04 22.68   +24 56.8    0.048    1.013   126.7    51.1    20.1
2004 01 23    04 52.87   +24 37.2    0.048    1.017   132.5    45.5    20.0
2004 01 24    05 22.70   +23 55.6    0.048    1.021   138.2    40.0    19.8
2004 01 25    05 51.23   +22 55.3    0.049    1.025   143.7    34.7    19.8
2004 01 26    06 17.73   +21 41.4    0.051    1.029   148.8    29.7    19.7
2004 01 27    06 41.76   +20 19.7    0.054    1.033   153.3    25.3    19.7
2004 01 28    07 03.21   +18 55.3    0.057    1.037   157.3    21.5    19.7
2004 01 29    07 22.14   +17 32.1    0.060    1.042   160.7    18.2    19.7
2004 01 30    07 38.75   +16 12.8    0.064    1.046   163.6    15.5    19.8
2004 01 31    07 53.29   +14 58.8    0.068    1.051   165.8    13.3    19.8
2004 02 01    08 06.01   +13 50.8    0.072    1.056   167.6    11.6    19.9
2004 02 02    08 17.17   +12 49.0    0.077    1.061   168.9    10.3    20.0
2004 02 03    08 26.99   +11 53.1    0.082    1.066   169.9     9.4    20.1
2004 02 04    08 35.66   +11 02.7    0.087    1.072   170.5     8.7    20.2
2004 02 05    08 43.34   +10 17.4    0.092    1.077   170.9     8.3    20.4
2004 02 06    08 50.17   +09 36.6    0.098    1.083   171.2     8.1    20.5
2004 02 07    08 56.28   +09 00.1    0.103    1.088   171.3     7.9    20.6
2004 02 08    09 01.76   +08 27.2    0.109    1.094   171.3     7.8    20.7
2004 02 09    09 06.69   +07 57.7    0.115    1.100   171.3     7.8    20.9
2004 02 10    09 11.15   +07 31.1    0.120    1.106   171.3     7.8    21.0
2004 02 11    09 15.19   +07 07.1    0.126    1.112   171.2     7.8    21.1
2004 02 12    09 18.87   +06 45.6    0.132    1.118   171.1     7.8    21.2
2004 02 13    09 22.23   +06 26.1    0.139    1.124   171.1     7.8    21.3
2004 02 14    09 25.31   +06 08.6    0.145    1.131   171.0     7.9    21.4
2004 02 15    09 28.14   +05 52.8    0.151    1.137   170.9     7.9    21.5

Timothy B. Spahr             (C) Copyright 2004 MPC           M.P.E.C. 2004-B36

Read MPEC 2004-B35 Read MPEC 2004-B37


Our Web policy. Index to the CBAT/MPC/ICQ pages.


Valid HTML 4.01!